Temp
17 17 17 18 19 20 20 20 20 21 21 22 23 23 24 25 26 26 26 29 28 26 26 24 24 24 23 22 23 23 23 23 25 25 26 28 27 28 27 25 27 26 23 22 20
17 17 18 18 20 20 20 20 20 21 21 22 22 23 24 24 25 24 29 29 28 27 25 25 25 25 23 23 23 24 23 25 25 25 24 26 27 27 26 25 24 22 22 21 20
18 18 18 19 20 20 20 20 21 21 21 22 22 23 23 25 24 29 28 29 27 27 27 26 26 26 25 23 24 24 25 26 25 26 25 26 27 28 25 25 24 22 21 21 20
18 18 19 19 19 20 21 21 21 21 21 22 22 23 24 24 27 28 29 29 27 27 27 26 28 26 26 25 25 25 26 26 25 26 26 26 26 27 26 26 25 23 22 22 21
18 19 19 20 20 21 21 21 21 21 21 22 22 23 23 25 27 28 28 29 27 27 27 28 28 28 28 28 26 26 26 25 25 26 26 26 26 27 26 26 25 24 23 22 22
19 19 20 20 20 21 21 22 22 22 22 22 22 23 22 27 28 28 28 28 27 26 27 27 29 29 28 28 27 27 26 24 22 25 25 26 27 27 27 25 24 24 23 22 22
19 19 20 20 21 22 22 22 23 23 22 22 22 22 22 27 28 29 28 28 28 27 28 28 29 30 28 28 28 27 26 25 24 23 24 26 27 27 26 25 24 23 23 23 23
19 20 20 21 21 22 23 23 24 24 23 22 22 21 25 28 28 29 29 28 28 28 28 29 29 29 29 29 28 28 27 25 25 24 25 25 26 27 26 25 24 24 24 24 23
20 20 21 21 22 24 24 24 24 24 23 23 22 21 28 29 30 30 30 29 30 30 29 28 29 27 27 27 26 28 26 25 25 25 26 26 25 26 26 26 25 24 24 25 24
20 21 21 22 23 25 25 24 24 23 22 22 21 24 27 28 29 30 30 30 29 29 28 27 23 24 23 24 26 27 27 28 27 26 25 26 26 25 26 26 25 25 25 25 24
20 21 22 23 24 25 26 25 19 21 23 24 24 25 25 28 29 30 30 29 28 25 26 25 24 25 26 27 28 28 27 27 28 29 25 26 27 25 26 26 26 25 25 25 25
20 21 22 23 25 25 26 20 22 22 21 23 23 23 25 27 28 29 29 28 27 25 26 24 24 26 27 28 28 29 28 27 27 29 26 27 26 26 26 26 26 26 25 26 24
20 21 22 24 25 25 23 23 23 23 20 23 25 26 27 28 28 28 28 27 26 27 25 24 27 27 27 26 27 26 27 27 27 26 27 28 26 26 26 27 27 27 27 26 25
20 21 23 23 24 23 23 24 24 24 20 25 27 28 28 27 28 28 28 28 26 26 24 26 26 27 26 27 26 26 28 28 27 26 25 27 24 25 25 26 26 26 26 26 26
20 21 22 23 22 22 24 24 25 24 21 27 27 27 24 26 25 26 26 28 27 26 24 26 26 26 26 26 27 25 27 27 27 26 25 26 25 25 24 25 26 27 27 27 26
20 21 22 23 23 24 24 24 24 21 23 27 25 24 24 22 23 24 24 23 24 23 23 24 24 24 26 25 26 25 26 23 22 21 23 25 25 24 23 26 26 27 27 28 27
21 21 22 23 23 24 24 21 20 21 24 24 24 22 21 22 22 22 21 20 21 22 20 21 23 23 24 23 23 21 20 20 23 23 23 23 24 24 27 27 27 27 27 28 28
21 22 23 24 25 24 23 20 23 23 24 24 23 21 22 21 22 21 22 20 21 19 17 19 21 22 23 24 24 22 21 19 23 21 22 22 24 26 27 28 28 28 28 28 28
22 22 22 24 25 24 18 19 20 22 24 23 22 21 21 21 22 21 20 21 21 21 20 18 20 22 24 24 24 23 21 22 21 20 19 21 23 25 27 27 29 28 27 27 28
21 20 21 23 23 23 17 19 21 22 23 23 23 22 21 20 21 20 21 21 21 22 20 21 19 20 22 22 23 23 22 20 17 22 22 20 23 23 26 26 27 27 27 27 28
19 18 21 22 22 16 18 18 21 24 24 23 22 20 20 21 21 20 21 21 20 21 19 19 17 19 21 21 20 18 20 18 17 16 19 18 20 22 26 23 25 26 26 26 28
15 19 22 22 18 11 18 20 22 23 22 22 21 21 21 21 21 21 20 21 19 20 20 18 14 17 19 19 18 19 20 16 16 18 16 17 18 24 23 24 24 24 25 23 27
13 13 22 22 18 16 18 22 23 23 23 22 22 22 21 20 20 20 20 20 19 20 20 19 15 14 16 17 18 19 21 20 16 14 16 18 19 25 23 22 20 21 23 22 23
13 18 16 13 12 18 20 22 23 22 21 19 20 20 19 19 17 19 19 20 18 20 20 16 13 15 15 17 17 18 19 19 18 16 17 17 19 20 22 19 20 21 21 21 20
11 14 14 16 16 16 17 20 22 22 21 19 20 20 19 19 18 18 18 17 18 19 17 15 15 14 14 16 17 16 17 18 18 17 17 20 20 20 19 19 19 18 20 21 20
13 13 11 12 13 18 14 18 20 21 21 20 19 19 18 17 18 17 18 16 17 17 16 12 14 14 16 16 16 17 18 18 18 19 19 19 18 19 19 18 19 18 19 20 20
12 13 12 11 13 15 16 17 19 20 19 19 18 17 18 18 17 17 15 14 16 16 13 14 12 12 14 15 16 15 17 18 18 19 19 18 19 19 19 18 18 18 18 18 18
Height
797 795 793 791 789 787 785 784 782 780 777 775 772 770 767 765 763 762 761 762 762 765 769 771 773 771 771 776 777 777 800 812 803 801 800 784 789 785 785 793 790 792 797 801 809
797 794 792 789 788 786 784 782 781 778 776 774 771 768 766 764 762 761 761 761 763 765 769 770 774 774 777 781 780 785 802 801 791 793 798 791 788 790 795 797 800 800 801 805 809
797 794 791 788 786 785 783 781 779 778 775 772 770 767 765 764 763 761 759 760 763 767 770 770 772 773 780 783 785 788 798 788 791 788 789 791 789 785 797 804 798 801 804 806 811
795 793 790 787 785 783 782 779 778 776 774 771 769 767 765 764 784 761 760 762 765 768 770 770 771 779 784 790 783 792 787 787 790 788 789 792 789 792 794 792 790 796 800 806 810
795 792 789 786 784 782 780 778 776 775 773 771 769 766 766 767 765 762 762 763 765 767 768 768 772 774 782 777 782 788 789 787 785 785 786 786 790 791 791 788 792 799 802 805 809
794 791 787 784 782 780 778 777 775 773 771 770 769 767 767 773 761 761 762 764 765 767 768 768 767 767 775 776 780 780 788 788 787 784 787 788 785 784 786 789 796 800 804 804 808
792 789 786 783 780 778 777 775 772 771 771 770 769 767 768 766 761 761 763 764 766 767 768 767 767 769 770 778 773 780 793 791 792 792 791 784 792 789 785 788 798 803 803 806 808
792 789 785 782 779 777 775 772 768 768 768 769 768 768 768 761 760 760 761 763 764 765 766 766 767 768 772 771 781 789 792 811 793 793 791 794 805 784 784 789 798 802 803 804 807
791 788 785 781 778 775 772 770 769 769 768 769 769 769 769 761 760 760 760 761 763 763 765 766 768 776 777 791 805 796 815 814 805 795 793 796 801 785 782 788 797 800 801 802 804
791 787 784 780 777 773 771 770 770 770 770 770 770 774 764 767 762 761 760 761 762 763 766 770 780 793 799 805 824 814 813 805 806 796 798 797 796 790 785 786 793 796 798 800 801
790 787 783 780 776 773 771 770 775 775 770 774 774 773 768 764 762 761 761 761 763 770 788 784 801 810 800 796 793 798 805 811 797 782 796 796 788 789 787 790 792 793 795 796 796
790 786 783 780 777 775 773 776 784 784 786 770 770 770 766 764 768 762 762 769 774 791 784 798 809 794 790 790 793 794 802 808 796 782 792 787 789 783 782 780 781 784 787 789 793
789 785 782 779 777 777 777 780 780 779 790 777 768 767 766 765 770 768 763 769 780 788 793 804 795 787 789 796 801 804 805 805 806 793 782 781 794 788 780 778 781 781 780 782 785
788 784 782 779 780 778 779 779 777 777 809 790 776 770 766 765 775 765 764 770 782 793 796 797 788 790 796 797 800 811 791 793 800 808 824 786 829 795 785 782 779 776 777 777 779
786 782 781 780 779 780 781 778 776 777 839 784 778 769 771 777 781 776 768 768 788 791 797 803 797 798 802 802 793 807 790 794 794 806 808 802 819 799 784 791 779 769 767 767 768
784 780 779 778 778 778 777 776 777 815 828 792 785 790 787 790 788 782 779 774 784 796 800 802 796 800 800 795 794 791 793 803 809 818 832 808 810 805 796 773 766 760 757 755 756
781 778 777 777 777 777 776 776 816 829 798 804 801 798 803 806 802 801 806 811 819 823 834 818 812 803 798 807 799 807 823 846 836 831 835 806 812 797 764 759 756 752 749 745 747
778 774 774 774 775 776 776 797 817 806 804 795 800 804 812 811 811 811 813 824 815 823 843 842 839 815 806 808 815 816 823 850 843 850 832 812 812 786 754 745 742 739 735 735 740
774 773 773 774 774 775 786 819 816 805 793 799 804 816 821 814 812 817 824 825 822 817 836 845 837 812 805 803 807 815 830 818 832 837 845 824 794 770 751 748 740 736 733 730 729
773 773 774 774 774 775 799 810 801 791 790 795 812 814 827 825 823 823 826 823 822 814 815 827 845 822 814 806 807 813 812 834 847 843 842 831 810 801 769 763 751 741 735 727 721
774 778 775 774 776 787 807 808 795 784 785 797 809 819 823 823 824 828 828 825 821 819 818 826 841 834 820 822 828 831 829 833 840 849 850 856 825 781 771 771 761 747 735 725 715
778 789 776 775 793 814 804 796 787 788 787 794 802 810 817 820 824 824 829 824 820 818 827 830 851 850 833 821 822 820 824 840 853 849 848 846 824 766 770 764 760 750 739 728 711
788 789 776 775 806 809 800 790 786 788 792 798 804 803 810 819 830 824 824 820 819 819 824 826 851 863 850 836 826 826 822 824 840 852 848 845 816 766 766 765 763 757 739 733 721
790 795 788 787 803 800 799 795 794 789 795 800 806 806 815 822 828 828 825 819 820 817 817 825 850 847 859 842 834 836 828 826 833 850 840 830 803 793 777 779 763 754 745 738 733
795 806 806 811 805 805 804 799 796 799 797 801 808 809 816 827 828 828 828 826 821 818 824 831 844 846 841 835 832 833 830 827 829 829 833 810 798 788 786 780 769 761 749 739 739
803 807 808 812 810 803 811 807 802 801 801 806 812 813 815 825 823 830 827 830 828 826 828 839 843 841 837 829 830 827 822 816 815 811 807 802 799 782 777 775 769 759 754 745 741
804 805 807 817 813 811 814 808 802 798 802 801 807 815 817 815 815 815 819 824 823 826 836 837 845 848 845 830 830 832 815 808 803 792 792 801 787 779 775 775 767 757 758 752 745
Wind_Speed
16 15 15 14 12 11 11 11 11 12 14 15 15 14 14 17 15 7 3 2 7 17 18 17 10 6 6 4 1 1 4 1 1 1 3 4 3 7 4 6 0 2 6 13 24
17 17 16 14 12 11 10 10 11 12 13 14 13 12 13 16 11 4 2 5 13 18 19 13 7 5 4 3 1 3 2 4 2 2 4 5 0 5 3 4 4 9 16 25 24
17 17 17 15 12 10 9 9 10 11 11 13 12 10 12 11 2 3 4 10 16 18 10 8 7 5 2 2 0 2 0 2 6 3 1 3 3 2 9 3 4 16 15 18 19
18 18 17 15 13 10 9 9 9 10 10 11 10 9 10 3 5 4 5 11 15 14 9 6 3 3 3 5 4 2 3 3 2 4 1 2 3 0 8 4 8 15 18 16 14
19 19 17 15 13 11 10 9 9 9 9 9 9 9 3 2 3 5 1 5 14 11 3 2 4 3 2 2 6 1 6 3 4 5 4 6 3 4 13 8 11 14 16 15 13
20 19 18 16 14 12 11 9 9 8 8 7 8 6 2 3 3 6 4 8 7 9 1 4 2 2 0 2 2 7 10 6 1 5 5 9 5 9 6 13 13 15 14 13 13
20 20 19 18 16 13 12 12 11 9 6 4 6 4 1 3 1 5 3 4 3 5 2 4 4 2 3 4 3 11 6 6 6 4 5 10 3 4 13 16 15 13 13 11 12
20 21 20 19 17 16 15 17 9 5 2 1 4 1 2 1 6 6 3 3 4 4 5 7 2 2 2 1 4 2 3 3 3 3 5 3 6 5 16 18 16 14 13 13 11
20 20 20 18 18 18 18 5 5 4 1 1 2 1 2 6 1 1 0 1 1 2 2 2 1 3 3 3 3 1 3 3 5 9 3 8 5 3 14 15 15 14 13 13 10
21 20 19 18 19 18 15 5 5 3 4 2 2 3 6 3 4 3 1 1 1 1 4 5 5 4 4 5 2 2 2 1 6 8 14 8 12 5 13 16 16 15 13 13 12
23 20 18 16 17 14 14 1 6 4 4 2 2 2 4 7 5 2 1 3 3 8 3 4 5 2 2 2 2 2 3 4 5 5 7 15 11 12 14 12 14 15 14 14 14
24 20 17 16 11 9 14 6 3 4 6 1 3 4 8 3 3 2 1 3 4 3 2 6 1 3 3 2 3 3 2 4 5 2 8 7 14 9 17 22 20 18 16 15 10
25 19 16 15 5 5 8 6 17 2 3 6 3 3 4 3 1 3 2 2 4 3 3 5 2 2 4 5 5 3 1 3 4 7 3 1 5 8 13 13 14 14 15 14 15
27 18 13 11 2 7 2 17 12 4 5 5 3 4 3 2 4 3 2 3 6 4 4 1 3 4 5 2 4 2 5 3 5 4 2 3 4 4 7 18 15 18 17 16 15
27 15 9 7 4 1 4 19 3 3 4 2 3 3 6 6 3 11 6 4 3 3 6 3 5 5 5 4 1 6 4 5 3 4 1 2 2 6 6 11 18 19 21 21 19
23 14 6 3 4 2 12 11 2 5 2 2 4 6 5 9 8 8 7 8 3 6 6 3 4 5 3 4 2 5 1 5 4 3 1 6 6 5 6 13 17 18 22 24 22
20 12 6 4 2 5 13 4 5 4 3 3 3 5 5 7 7 8 7 9 4 5 6 7 4 5 4 7 7 11 6 3 3 0 5 2 0 7 6 5 9 16 22 24 22
21 8 4 7 3 6 3 5 4 3 2 2 3 4 6 5 5 7 3 6 8 6 4 3 5 7 8 1 4 5 4 4 3 3 5 5 6 5 7 8 9 10 16 19 20
15 3 2 2 4 2 5 4 7 5 3 5 4 6 6 5 4 3 5 2 3 3 4 3 4 5 2 3 1 5 3 2 2 2 2 4 8 8 7 10 9 9 7 14 20
8 4 4 4 5 4 5 4 3 3 4 4 4 2 3 5 4 4 3 5 3 3 1 3 2 2 6 5 4 3 3 3 3 2 4 5 5 5 10 13 20 22 13 12 17
4 3 11 6 2 5 4 5 4 2 3 3 3 4 3 2 3 1 1 1 3 4 4 3 3 6 2 2 4 5 4 3 3 4 4 3 6 5 5 9 20 21 18 16 13
3 3 8 2 4 1 2 4 3 3 5 4 5 4 3 2 2 2 3 1 5 1 3 2 4 2 6 5 4 4 4 4 4 6 2 2 6 10 8 15 17 23 22 17 9
2 2 4 3 2 2 4 1 1 3 2 3 3 2 2 3 3 1 2 3 7 3 3 3 1 3 8 6 5 5 2 2 2 2 4 2 6 14 19 20 20 21 24 14 11
3 3 4 4 1 3 3 2 3 5 4 5 4 5 4 2 5 4 1 1 4 3 5 6 3 7 6 7 3 3 3 5 3 2 5 7 17 10 18 14 23 21 19 13 12
4 0 2 2 4 3 2 4 2 3 3 5 4 3 5 3 1 1 1 4 2 2 3 4 3 5 6 8 3 6 8 8 7 7 7 12 22 15 8 14 14 14 15 11 13
3 2 4 1 2 2 6 3 3 2 3 2 7 3 3 6 7 7 4 3 5 2 2 2 3 4 4 7 7 5 8 14 14 15 16 12 13 2 11 7 9 13 14 11 11
4 2 3 4 3 3 2 4 3 3 5 5 9 5 2 5 6 5 6 2 2 4 4 3 4 2 5 4 6 5 11 11 6 7 6 7 7 6 6 5 7 10 11 10 9
Wind_Direction
355 351 347 342 339 339 339 340 342 341 339 339 337 331 323 324 329 323 275 125 153 149 142 121 112 80 65 77 61 17 55 39 321 11 99 117 123 180 88 131 279 84 111 130 141
353 350 345 342 339 338 339 338 342 344 342 340 338 327 324 329 330 287 175 159 161 153 141 132 149 172 51 57 3 84 123 184 64 55 44 340 191 144 106 164 59 84 103 129 141
359 355 349 344 343 343 340 339 339 344 343 341 338 329 326 331 336 32 306 181 168 145 163 159 154 166 104 87 121 23 270 78 32 191 46 10 84 105 146 239 202 152 144 145 150
359 355 351 349 348 346 341 336 337 341 343 343 341 332 331 353 141 19 90 149 174 156 141 180 180 182 170 177 180 182 130 63 47 47 15 55 5 161 172 233 149 152 151 149 158
358 355 354 352 349 347 344 335 333 336 342 344 344 338 357 52 273 351 123 151 166 187 232 220 201 190 25 259 145 175 103 70 88 67 17 346 219 215 215 103 130 145 154 165 169
359 357 355 354 351 347 343 336 328 331 339 343 351 351 8 112 14 58 101 142 167 188 223 211 280 289 221 291 182 107 96 119 73 277 345 340 296 187 178 141 147 158 174 173 175
358 356 354 353 353 352 349 334 315 305 319 337 354 10 55 172 190 10 127 164 182 194 196 229 265 346 2 1 129 137 101 87 26 13 340 333 296 172 147 152 158 179 177 189 188
357 356 354 353 354 350 345 330 308 277 277 338 350 62 198 107 312 301 218 229 246 245 237 281 280 29 37 243 69 48 140 51 270 130 271 253 276 188 157 158 170 184 189 194 186
356 355 354 352 351 346 348 10 56 82 102 331 41 359 26 337 37 30 12 313 253 287 249 220 80 113 20 72 60 51 99 77 309 206 289 228 284 186 166 167 178 188 194 197 199
356 354 354 351 349 348 1 67 79 81 80 63 358 37 350 318 328 316 166 302 346 342 43 54 52 73 34 53 97 328 73 121 225 202 218 245 253 195 183 179 184 191 198 205 195
355 352 352 350 348 354 9 20 18 355 59 137 230 234 290 303 302 252 280 113 40 48 97 15 71 121 151 172 259 222 208 207 254 217 179 222 231 185 192 199 196 194 199 205 208
354 349 349 348 348 3 40 70 58 271 324 325 244 274 263 260 12 320 125 82 75 99 60 30 101 180 194 162 70 358 0 317 297 190 197 250 232 181 191 204 204 196 199 203 202
350 346 346 348 356 33 62 70 348 168 102 309 258 294 273 135 294 282 103 111 99 77 69 133 217 337 87 34 43 352 201 267 278 317 314 172 287 184 211 208 210 217 217 210 202
348 342 344 351 44 355 61 351 352 141 71 303 3 349 348 321 35 337 348 113 32 121 138 114 304 49 48 14 126 346 198 243 308 40 282 60 284 243 197 210 210 215 213 215 209
346 338 338 340 311 317 341 345 21 76 77 309 4 339 352 59 291 339 1 41 79 93 82 283 4 3 18 327 218 243 299 259 243 205 115 287 121 273 130 212 224 218 214 213 210
343 332 316 277 290 271 340 346 98 47 146 13 9 352 41 13 14 347 29 46 58 71 17 18 320 62 291 332 329 277 334 27 58 104 250 228 172 267 179 216 223 225 222 216 207
342 320 268 226 196 328 343 57 49 117 310 4 38 17 85 8 30 27 34 36 50 53 3 339 360 327 358 13 350 26 43 357 344 258 224 211 172 231 243 245 234 221 221 221 211
340 311 236 217 199 321 38 58 96 190 214 89 102 47 73 359 9 15 64 51 12 59 78 61 336 14 341 89 252 303 124 139 263 234 268 279 248 251 227 250 242 240 233 219 211
344 328 249 126 155 114 76 75 187 201 175 125 57 65 6 7 81 67 22 84 48 28 108 76 291 322 308 298 56 314 36 282 168 340 64 247 290 304 290 315 327 291 234 217 210
343 342 28 141 134 76 78 196 184 212 122 75 108 82 113 340 52 47 26 348 341 23 81 188 295 267 292 15 19 117 247 5 10 278 285 295 281 243 327 333 334 326 311 249 221
3 56 13 178 183 49 130 215 219 196 116 100 125 94 102 137 112 147 91 311 334 333 69 104 121 289 23 24 260 350 21 21 124 134 198 303 270 231 340 327 324 317 310 295 231
40 67 9 174 49 34 131 192 290 122 55 79 93 109 130 156 108 85 112 99 328 270 65 25 136 244 251 288 295 187 105 102 104 297 255 207 260 283 320 338 340 325 316 312 264
74 260 10 164 97 328 301 321 179 118 87 97 112 122 100 119 103 160 130 191 14 65 135 170 13 20 344 0 358 52 345 96 139 80 231 240 262 340 333 337 331 324 321 313 300
71 45 343 45 43 123 24 7 97 35 68 76 111 81 98 88 22 174 324 229 332 174 88 92 132 168 190 223 173 262 243 279 162 159 250 241 287 309 308 323 322 327 321 323 310
35 20 192 355 360 60 8 344 107 114 75 43 49 123 145 126 69 214 252 324 340 344 69 99 212 190 244 256 257 236 252 244 232 220 218 281 284 290 300 305 310 319 323 329 323
83 52 3 61 317 27 4 36 336 79 82 59 127 139 118 149 184 208 174 196 231 34 101 29 246 175 266 256 226 246 269 264 249 253 258 255 266 198 316 302 320 344 326 334 323
35 51 101 319 13 73 335 300 323 100 22 162 139 110 161 228 176 197 194 107 298 180 183 166 158 111 257 258 307 275 230 232 238 233 214 227 241 309 304 305 342 352 325 336 337